Location: Mauries
(43.6188°N, 0.3322°W)
Time: 19:05:56
(UTC+00:00)

Cosmos 1758 - Pass Details

Date: 14 January 2026
Orbit: 479 x 500 km, 82.5° (Epoch: 10 February)

Event Time Altitude Azimuth Distance (km) Brightness Sun altitude
Rises 06:58:43 0° 222° (SW) 2,582 6.6 -6.3°
Reaches altitude 10° 07:01:17 10° 240° (WSW) 1,701 5.5 -5.8°
Maximum altitude 07:04:01 19° 288° (WNW) 1,230 4.5 -5.4°
Drops below altitude 10° 07:06:46 10° 335° (NNW) 1,702 5.4 -4.9°
Sets 07:09:21 0° 354° (N) 2,586 6.4 -4.5°
